This is the latest recevied weather packets stored in our database for station/object SP5QWJ. If no packets are shown the sender has not sent any weather packets the latest 10 day(s).
| Time | Temp. | Humidity | Pressure | Rain* | Wind** | Luminosity | Snow |
|---|---|---|---|---|---|---|---|
| 1778001264 | 24.44° C | 31% | 1004.2 hPa | - | - | - | - |
| 1778000353 | 24.44° C | 31% | 1004.2 hPa | - | - | - | - |
| 1777999440 | 25° C | 30% | 1004.4 hPa | - | - | - | - |
| 1777998529 | 25.56° C | 29% | 1004.5 hPa | - | - | - | - |
| 1777997617 | 25.56° C | 29% | 1004.6 hPa | - | - | - | - |
| 1777996706 | 26.11° C | 29% | 1004.7 hPa | - | - | - | - |
| 1777995792 | 26.67° C | 28% | 1004.7 hPa | - | - | - | - |
| 1777994881 | 26.67° C | 28% | 1004.9 hPa | - | - | - | - |
| 1777993969 | 26.67° C | 28% | 1005 hPa | - | - | - | - |
| 1777993058 | 27.22° C | 28% | 1005 hPa | - | - | - | - |
| 1777992146 | 27.22° C | 28% | 1005 hPa | - | - | - | - |
| 1777991235 | 27.78° C | 29% | 1005.2 hPa | - | - | - | - |
| 1777990324 | 28.33° C | 30% | 1005.4 hPa | - | - | - | - |
| 1777989412 | 27.78° C | 31% | 1005.5 hPa | - | - | - | - |
| 1777988500 | 26.67° C | 32% | 1005.7 hPa | - | - | - | - |
| 1777987588 | 26.67° C | 33% | 1005.8 hPa | - | - | - | - |
| 1777986677 | 26.67° C | 33% | 1005.9 hPa | - | - | - | - |
| 1777985765 | 26.67° C | 32% | 1006 hPa | - | - | - | - |
| 1777984855 | 27.22° C | 33% | 1006.2 hPa | - | - | - | - |
| 1777983942 | 27.78° C | 32% | 1006.3 hPa | - | - | - | - |
| 1777983031 | 27.78° C | 32% | 1006.6 hPa | - | - | - | - |
| 1777982119 | 28.33° C | 33% | 1006.6 hPa | - | - | - | - |
| 1777981207 | 27.22° C | 34% | 1006.8 hPa | - | - | - | - |
| 1777980296 | 27.22° C | 35% | 1007 hPa | - | - | - | - |
| 1777979385 | 27.22° C | 36% | 1007.1 hPa | - | - | - | - |
* Rain since midnight (hover to see other rain measurements)
** Current wind speed in m/s (hover to see current wind gust speed)